Theta_e
333 337 343 344 344 345 344 344 344 343 343 344 345 344 345 343 342 340 340 341 341 342 341 340 341 340 340 340 339 340 339 339 338 338 339 339 340 339 339 339 340 341 338 334 333 331 330 331 330 329 331 333 334 336 336 336 337 338 338 337 336 335 336 336 337 339 339 338 336 333 331 330 331 333 333 330 329 334 337 339 341 342 341 338 337
335 337 343 344 344 345 343 344 344 343 343 344 345 344 345 343 342 340 339 340 340 341 341 340 340 340 340 340 340 340 340 339 339 338 338 338 339 339 339 339 340 340 338 333 329 327 325 325 325 324 326 328 330 332 333 335 336 336 337 337 337 335 334 334 335 336 337 335 331 328 326 325 326 328 328 324 323 330 336 340 340 341 342 341 340
335 338 343 344 344 345 343 344 344 343 343 343 344 344 344 343 341 339 339 340 340 340 341 340 340 340 340 340 339 340 339 339 338 337 337 338 338 339 339 339 340 340 339 335 331 331 329 326 325 324 322 323 324 325 328 330 332 333 335 336 336 335 333 333 333 334 333 330 328 329 328 326 324 324 326 323 322 324 329 336 340 341 341 341 341
335 338 342 344 343 344 344 344 344 343 343 343 343 343 343 342 341 339 340 340 340 340 341 340 340 339 339 339 339 339 339 339 337 336 336 336 337 337 339 339 340 340 339 337 336 336 335 332 329 328 325 322 323 323 324 324 325 328 332 335 336 336 334 334 334 333 331 328 331 335 335 333 330 329 330 328 328 326 324 328 334 338 340 342 342
335 338 342 344 343 344 344 344 344 342 343 343 343 343 343 342 341 340 339 340 341 340 340 340 340 339 339 339 339 339 338 338 336 335 335 336 336 337 338 338 339 339 339 338 338 338 336 334 330 328 327 325 325 325 325 324 323 323 327 331 335 336 335 335 335 334 332 331 334 337 338 338 337 336 335 332 331 330 328 327 327 330 333 337 340
334 338 341 344 343 344 343 343 343 342 343 343 343 343 343 342 341 341 340 339 341 340 340 339 340 339 339 339 338 338 338 337 336 335 334 335 336 337 338 337 338 338 338 337 337 337 334 332 327 322 322 322 322 323 324 326 326 324 322 323 329 334 335 335 333 334 334 334 335 337 338 339 339 338 337 334 332 330 329 328 327 326 326 328 333
333 338 341 343 344 343 342 343 341 341 342 342 342 343 343 342 341 341 340 339 339 340 340 340 339 338 338 338 338 338 337 335 335 335 332 332 334 336 338 337 337 337 337 336 336 335 334 331 325 320 321 322 320 319 317 320 327 326 324 318 319 328 333 335 333 332 334 336 336 337 337 338 339 338 337 335 334 332 329 328 327 326 326 324 326
331 337 341 342 344 343 341 341 340 341 341 341 342 342 343 342 341 341 340 339 339 340 340 339 339 338 338 338 338 338 337 335 335 334 330 330 331 334 336 336 336 336 336 335 335 333 333 331 326 325 326 326 323 322 313 311 323 325 323 315 309 318 327 332 333 331 333 336 336 337 336 337 338 338 337 335 333 332 331 331 331 328 326 325 326
330 336 341 342 343 342 341 341 340 341 341 340 341 342 342 342 342 341 340 340 340 340 340 339 338 338 338 337 338 338 337 335 334 332 330 330 328 331 333 335 335 336 336 335 334 333 333 332 329 328 328 326 322 323 314 303 312 314 310 306 301 311 322 327 329 331 334 336 336 336 335 336 338 338 337 334 331 331 332 334 334 332 330 329 328
330 336 341 342 342 341 341 342 341 340 341 339 339 341 341 341 341 341 341 340 340 339 339 339 337 336 337 338 337 337 335 333 333 332 331 330 328 329 332 333 334 335 336 335 334 333 332 331 330 328 326 324 318 319 313 299 301 302 300 301 300 309 321 324 326 331 334 335 335 335 332 332 336 337 336 334 333 331 330 332 333 333 333 333 333
329 332 338 341 341 340 340 341 341 340 341 339 339 340 340 341 340 341 340 340 339 339 339 339 338 335 334 335 335 334 333 334 334 332 331 329 328 329 332 334 334 335 335 334 334 331 330 330 329 327 324 323 317 313 306 299 299 300 299 300 302 310 321 324 327 331 333 334 334 335 332 331 335 335 335 335 333 331 328 330 333 334 334 334 334
328 329 335 339 340 339 339 341 341 341 340 339 339 338 339 340 340 340 340 339 339 339 338 338 338 337 334 333 333 333 333 335 335 334 332 329 330 330 332 334 334 335 334 332 331 329 328 328 326 325 325 324 320 310 300 299 299 299 300 300 303 310 318 323 327 331 331 333 332 333 333 333 335 333 334 334 332 332 330 330 331 332 333 333 334
329 330 332 337 339 338 339 340 340 340 339 339 338 338 339 339 340 340 339 339 338 338 338 337 337 337 335 334 336 335 334 335 335 335 334 330 331 332 332 333 334 333 331 329 327 328 328 326 326 326 326 324 321 311 299 299 299 299 301 300 303 308 314 320 326 330 330 331 331 332 333 333 332 331 334 333 331 331 330 329 328 329 331 333 334
332 332 334 337 338 337 337 340 340 339 339 338 338 337 338 339 339 340 339 338 338 337 337 337 336 336 335 336 337 336 334 334 335 336 335 332 331 333 333 333 333 331 329 328 328 329 328 326 326 326 326 323 321 314 301 298 299 300 301 300 302 306 314 321 325 328 329 329 330 331 331 333 331 330 332 332 330 329 327 326 326 328 331 333 333
333 334 336 337 337 336 335 338 339 339 338 338 338 338 338 338 339 339 339 338 338 337 336 336 335 335 335 335 336 336 335 334 335 335 336 334 332 333 333 333 332 330 329 330 330 330 328 327 326 325 325 323 321 316 304 298 299 300 300 301 302 305 313 323 327 327 328 328 329 331 331 332 331 330 331 330 330 328 324 324 323 325 330 333 332
334 334 335 336 337 337 335 337 338 338 338 338 337 337 338 338 338 339 339 338 338 336 335 335 335 334 334 335 335 335 334 334 335 335 336 335 333 333 333 332 331 330 331 331 330 328 327 326 326 325 325 323 321 317 307 299 298 299 300 300 302 304 308 319 327 327 328 328 328 330 330 331 331 331 331 330 329 327 325 323 320 319 323 329 331
333 334 336 336 337 337 337 338 338 337 337 337 337 337 338 338 339 339 339 339 338 337 335 334 335 334 333 335 336 335 334 334 335 335 336 335 334 334 334 332 331 332 332 331 330 328 326 325 325 325 324 323 320 317 308 299 298 299 300 301 300 303 304 311 323 327 326 326 328 328 329 330 331 330 330 329 329 327 325 322 320 317 315 319 323
331 333 335 336 336 337 338 339 338 337 337 337 337 337 337 337 338 339 339 340 338 338 336 334 334 334 334 335 335 335 335 334 335 335 335 336 335 335 334 333 332 333 332 330 330 329 327 325 325 325 324 323 321 318 310 300 297 299 299 300 299 301 301 305 315 319 321 324 327 327 328 330 330 330 329 329 329 327 326 324 322 321 317 314 314
330 331 333 335 335 336 336 338 338 338 338 338 337 337 337 336 337 338 338 339 339 338 337 334 334 335 335 335 335 336 335 335 334 334 335 335 335 334 335 334 333 333 332 331 330 329 328 325 324 324 323 323 322 319 313 303 297 298 299 299 299 300 300 303 306 309 316 321 324 326 327 329 329 329 329 328 328 327 327 326 324 322 318 313 309
327 329 332 334 335 336 335 336 337 337 338 337 338 337 337 336 336 337 337 337 338 339 337 336 334 335 335 335 335 334 335 334 333 333 334 334 334 333 333 334 334 333 332 331 330 329 328 326 323 322 322 323 323 321 316 307 299 297 298 299 299 299 300 302 302 304 311 312 317 323 324 327 328 327 328 327 327 326 326 325 323 319 314 309 308
320 322 326 329 333 335 335 335 335 336 337 337 337 337 337 336 335 336 336 336 337 338 337 337 336 334 334 334 333 333 333 334 334 333 332 332 333 332 332 333 333 334 332 330 330 330 329 327 323 322 321 322 323 322 318 310 301 297 298 298 298 299 299 300 300 301 303 303 309 315 317 323 326 326 326 326 325 325 323 320 316 316 316 311 308
313 314 317 321 326 331 334 335 335 335 337 337 336 337 337 336 336 336 335 335 335 335 336 336 337 336 335 333 333 333 333 334 334 333 332 332 333 332 332 332 332 333 332 330 330 329 329 327 325 324 321 319 322 323 320 314 304 298 297 298 298 299 299 298 299 299 298 299 302 305 310 317 322 324 324 324 324 322 318 314 313 316 319 315 310
311 312 312 314 318 323 329 333 334 335 335 336 336 336 337 336 336 336 335 336 336 336 336 335 336 338 336 334 334 334 333 333 334 333 332 332 332 332 331 331 332 332 332 330 330 329 329 328 326 325 321 318 321 323 322 319 310 301 297 298 298 298 299 298 298 298 298 298 297 300 305 310 316 320 322 323 323 322 317 313 316 319 319 318 318
312 313 313 313 313 315 319 325 331 334 334 335 335 335 336 336 335 334 334 336 337 335 334 334 335 336 336 335 333 334 333 333 334 332 331 332 332 332 331 331 332 333 332 330 329 329 328 328 326 326 322 318 321 323 322 321 317 308 299 297 298 298 298 298 298 298 297 298 297 297 300 304 309 313 318 322 322 322 320 316 318 321 321 320 321
313 314 314 315 314 313 313 317 324 329 334 334 334 335 335 336 335 334 334 336 338 335 333 334 334 334 334 334 332 332 332 332 333 333 332 332 332 333 331 331 331 332 331 330 329 329 328 328 327 325 321 320 322 323 322 322 320 316 307 299 297 298 298 298 298 298 297 297 298 297 297 299 302 304 311 318 321 322 322 320 319 321 322 321 321
312 313 315 317 316 316 314 313 316 321 328 333 333 335 335 335 336 335 334 335 336 336 335 335 335 333 333 333 332 332 332 332 331 332 334 332 332 332 330 330 330 331 331 330 330 329 328 327 326 323 321 323 323 323 322 322 321 320 316 307 299 297 297 298 298 297 297 297 297 298 297 297 297 299 301 307 315 321 321 321 320 320 321 321 321
310 311 313 316 317 319 318 315 314 314 319 329 333 334 334 335 335 333 333 333 333 334 334 333 334 334 334 335 334 334 334 334 332 331 332 332 333 332 330 330 330 331 331 331 330 329 329 327 326 324 323 324 324 322 321 322 322 320 319 315 307 300 296 296 297 297 297 297 297 297 297 297 297 297 297 297 303 313 320 322 320 320 321 321 321
308 310 312 315 318 319 320 318 316 312 317 327 332 332 333 333 333 333 333 333 333 332 332 332 333 333 334 335 335 335 336 335 334 332 331 332 333 332 331 330 330 330 330 331 330 328 328 327 326 324 324 325 323 321 320 321 322 321 320 318 315 309 302 298 296 297 297 297 297 297 297 298 297 297 297 296 296 301 313 321 322 320 321 320 321
307 309 312 315 319 320 321 320 318 317 322 328 331 332 332 332 331 332 333 332 332 331 332 332 331 331 331 332 332 333 334 334 334 334 333 333 332 332 331 330 329 329 329 330 329 328 328 327 326 326 325 324 322 320 321 321 321 320 319 318 317 315 311 304 299 297 298 298 297 297 297 297 298 298 297 298 297 296 302 313 321 321 320 321 320
307 311 314 316 319 321 322 321 320 322 326 328 329 332 334 333 331 332 333 330 330 330 330 331 330 330 330 330 330 331 333 333 333 333 332 333 332 331 331 330 329 328 327 328 328 328 328 327 327 327 326 324 321 320 321 321 319 318 318 317 316 315 314 311 305 300 297 297 297 297 297 297 297 298 298 298 298 297 296 302 316 322 321 321 322
309 313 315 317 320 322 323 324 324 324 328 329 329 331 332 332 330 330 331 328 329 330 329 329 330 330 330 330 330 330 331 332 332 332 330 330 330 330 329 328 328 328 327 327 328 328 328 327 326 327 326 323 320 321 322 320 318 317 316 315 315 314 313 312 310 306 303 300 299 298 297 297 297 297 298 298 298 298 297 297 306 317 320 322 322
309 313 316 319 321 323 324 326 326 326 328 329 330 330 329 330 329 329 329 328 328 328 327 328 328 328 329 330 330 330 331 331 331 330 329 329 328 328 327 327 327 327 327 327 327 327 327 327 326 326 325 323 321 320 322 320 318 317 316 315 314 313 312 311 310 309 308 305 303 300 298 297 297 297 297 297 297 297 298 297 298 303 311 317 320
309 314 317 319 322 324 324 326 327 328 328 328 328 329 328 328 328 327 327 327 326 325 325 326 327 327 327 328 329 329 330 330 330 329 329 328 327 327 326 326 327 327 327 326 326 326 326 326 325 324 323 323 322 321 322 320 319 317 316 315 315 314 313 312 311 310 309 307 305 303 300 298 297 297 296 296 297 297 297 297 297 296 300 307 313
307 313 317 318 321 323 324 325 326 327 327 327 326 326 326 325 325 325 325 325 325 325 324 324 324 325 326 326 326 327 328 327 328 328 328 327 326 326 326 326 327 326 326 326 326 326 325 325 325 323 322 323 322 321 321 319 319 318 316 316 315 315 314 313 313 312 311 309 307 305 303 301 299 297 296 296 296 296 296 296 297 297 297 299 302
307 311 314 316 319 322 323 324 325 325 325 325 324 324 324 323 323 323 323 323 323 323 322 322 322 322 323 324 325 325 326 325 325 325 325 325 324 325 325 325 326 325 325 325 325 325 324 324 324 322 322 322 322 321 319 319 319 318 316 316 315 315 314 313 312 312 312 310 308 306 304 301 300 298 297 296 296 296 296 296 296 296 297 297 298
308 310 312 314 318 321 322 322 323 323 323 323 322 322 323 322 322 321 321 321 321 321 320 320 320 320 321 322 322 322 323 323 323 324 324 323 323 323 323 323 323 323 323 323 323 322 321 321 321 321 320 320 319 318 318 319 319 317 317 316 316 315 314 313 312 311 310 309 308 307 305 302 300 299 298 297 297 296 296 295 295 295 295 296 296
308 311 313 315 318 320 321 321 321 321 321 321 321 321 321 320 320 319 319 319 318 318 317 317 317 318 318 319 319 319 319 320 320 321 321 321 321 321 320 320 321 321 321 321 321 320 319 319 319 319 318 317 316 316 317 318 317 316 316 316 316 315 314 312 311 310 308 305 304 304 304 301 299 298 298 297 297 296 296 296 296 295 295 295 295
308 311 314 316 317 318 320 319 319 319 319 319 319 319 318 318 317 316 316 316 315 314 314 314 314 315 315 315 316 316 317 317 317 318 318 318 318 317 317 317 317 318 319 319 319 318 318 318 317 317 317 315 315 314 315 316 316 316 316 315 315 314 313 312 310 308 305 303 301 302 302 299 298 298 297 297 297 297 297 296 296 296 296 295 295
306 308 312 315 315 316 317 317 317 317 317 317 316 315 315 315 314 313 314 313 311 310 311 311 311 311 311 311 312 313 313 314 314 315 315 315 315 314 313 313 314 314 315 316 316 315 315 315 315 314 314 313 312 311 311 313 313 313 312 312 312 312 311 309 307 304 303 302 303 303 301 299 298 298 297 297 298 298 298 298 298 297 297 296 296
305 305 308 310 311 312 314 315 315 315 314 314 313 313 312 312 311 311 309 308 307 307 307 307 307 307 307 307 308 308 309 310 310 311 312 312 312 311 311 311 311 311 311 311 310 310 310 310 310 310 310 309 309 308 307 309 309 309 309 309 309 309 308 306 304 303 302 303 303 302 300 299 298 298 298 299 299 299 299 299 299 298 297 297 297
304 305 305 306 308 310 311 312 312 312 312 312 312 312 310 310 309 308 306 304 304 304 304 304 303 303 303 304 304 304 305 306 306 307 307 307 307 307 307 308 308 308 308 307 306 307 307 307 307 307 306 304 304 304 305 307 307 308 308 308 307 307 306 304 303 302 302 302 301 301 300 299 299 299 300 301 301 301 301 300 300 299 299 298 298
302 304 304 306 308 309 310 310 310 311 311 311 312 311 309 308 307 305 303 302 301 301 301 300 300 300 300 300 301 301 301 301 302 302 303 303 302 303 303 304 304 304 304 304 305 305 305 306 305 305 304 302 301 301 303 305 305 306 306 307 307 306 305 302 302 303 301 300 301 300 300 299 300 300 300 300 300 300 300 300 301 300 300 300 300
300 302 303 305 307 308 309 308 308 309 310 309 309 308 307 306 304 302 301 300 299 299 298 298 298 299 299 299 299 299 299 299 299 299 300 300 299 299 299 300 300 300 300 300 300 301 301 303 303 303 304 302 301 300 300 302 302 304 305 306 306 305 305 303 302 302 300 301 301 300 299 300 299 297 297 297 297 297 296 296 297 299 299 300 300
298 299 301 304 306 306 307 306 306 306 306 306 306 305 304 303 302 300 299 298 297 298 298 298 298 298 298 298 298 298 298 298 298 298 298 298 298 297 297 297 297 297 297 297 297 297 298 299 300 301 302 302 301 300 299 299 299 301 303 305 305 305 305 303 302 302 301 301 300 299 299 299 296 293 294 295 294 294 293 291 292 293 295 297 298
296 298 300 302 303 304 304 304 303 303 303 303 302 301 301 300 299 298 297 296 296 295 295 294 295 295 295 295 295 295 295 295 295 295 295 295 295 295 295 295 294 294 294 294 294 294 295 295 296 297 298 300 300 299 298 297 297 299 300 302 303 304 303 301 302 302 301 301 299 299 298 296 294 292 293 294 292 292 292 290 289 289 291 294 296
295 297 298 300 301 301 302 302 301 301 301 300 300 299 299 298 297 296 295 294 292 291 290 290 290 290 291 291 291 291 291 291 291 291 291 291 291 291 291 291 290 290 290 290 290 290 290 290 291 292 293 295 296 296 297 296 295 296 297 298 299 300 299 298 298 298 298 299 298 298 297 295 294 292 293 293 292 291 291 289 288 288 289 291 292
294 296 297 298 299 300 301 301 300 300 300 300 300 299 298 297 297 296 295 292 290 288 288 288 288 288 288 288 288 288 288 288 288 288 288 288 288 288 287 287 287 287 287 287 287 286 287 287 287 287 288 290 292 293 294 294 293 293 294 295 295 297 297 296 295 293 294 295 295 295 295 294 293 293 293 292 292 292 290 287 287 288 288 288 289
293 295 296 298 299 300 300 300 300 299 299 299 299 299 298 298 297 296 294 291 289 288 287 287 287 287 287 286 286 287 287 287 287 287 287 287 287 287 287 286 286 286 286 286 286 286 286 286 286 286 286 286 288 289 290 291 291 291 292 292 293 294 294 294 294 293 292 292 292 293 293 292 292 293 293 292 292 292 289 287 287 288 288 288 288
292 293 295 297 298 299 299 299 299 299 298 298 298 297 297 296 295 295 292 289 288 287 286 287 286 286 286 286 286 286 286 286 286 286 286 286 286 286 286 286 286 286 286 286 286 286 286 286 286 286 286 285 285 286 287 287 288 289 290 291 291 291 292 292 292 292 291 291 291 291 292 291 291 291 291 290 291 289 288 288 288 288 288 288 289
291 292 294 295 296 297 298 298 298 298 297 297 297 296 295 295 294 293 291 289 287 287 286 286 286 286 286 286 285 285 285 285 285 285 285 285 285 285 285 285 285 285 285 285 285 285 285 285 285 285 285 285 285 285 285 286 286 286 287 289 289 289 290 290 290 290 291 291 291 291 291 291 290 290 289 289 288 287 287 289 289 289 290 290 290
289 290 292 293 294 295 296 297 297 296 296 295 295 294 293 293 292 292 291 289 288 287 286 286 286 286 286 285 285 285 285 285 285 285 285 285 285 285 285 285 285 285 284 285 284 284 284 284 284 285 285 284 284 284 284 284 285 285 285 287 288 288 289 289 289 289 290 290 290 290 290 290 290 290 289 288 288 287 287 288 288 290 291 290 290
Wind_Speed
12 21 19 18 20 15 16 14 13 12 12 12 11 12 10 10 9 9 9 10 10 9 10 10 10 10 11 11 11 10 11 10 11 11 10 10 8 9 9 8 8 10 11 10 11 12 12 13 12 12 13 13 13 12 11 10 9 9 9 9 9 9 8 8 8 9 10 11 10 11 13 12 12 11 12 12 11 11 11 11 11 9 9 9 8
13 25 19 18 20 16 16 14 13 12 12 12 11 11 10 10 8 9 8 10 10 9 9 10 9 9 10 10 10 10 10 9 9 9 9 8 8 8 8 8 8 9 9 9 11 12 12 12 12 12 12 12 12 12 11 10 8 7 6 7 8 7 7 6 7 8 9 9 9 11 13 13 12 12 12 12 11 11 11 11 11 11 11 10 9
16 26 19 17 21 17 16 14 14 12 12 11 11 11 10 10 8 9 8 9 9 9 8 8 9 9 9 9 9 9 9 8 8 8 8 8 8 9 8 8 8 9 9 9 11 12 12 11 10 10 10 10 10 10 9 9 8 6 5 5 6 7 7 6 6 6 7 8 9 12 13 13 13 12 11 12 12 11 11 11 12 12 12 11 10
17 26 19 18 21 17 15 14 14 12 12 12 11 11 10 9 9 8 8 9 8 9 9 8 9 9 9 9 8 8 8 7 7 7 7 7 8 8 8 8 7 8 8 9 10 10 10 10 9 8 7 7 8 8 7 7 7 6 5 5 5 5 6 6 6 6 7 8 10 11 9 10 11 11 10 10 11 11 11 11 11 11 12 11 12
19 26 20 17 19 17 16 14 14 13 13 12 11 11 10 9 8 8 7 8 8 8 9 9 8 8 9 8 8 7 7 6 6 6 6 7 7 7 7 7 6 6 7 9 9 9 9 10 11 9 7 7 6 6 6 6 6 5 4 4 4 4 4 5 6 6 7 8 10 9 7 8 8 9 9 9 9 9 10 10 9 9 10 10 11
19 25 21 16 16 16 17 14 13 13 13 12 11 11 10 9 8 7 7 8 8 8 8 9 8 8 8 8 7 7 6 6 5 6 6 6 6 6 7 7 5 6 7 7 8 7 8 10 11 11 11 10 9 8 7 6 6 5 3 3 2 3 3 3 5 5 6 7 7 7 7 6 6 8 8 9 9 9 9 9 8 8 8 8 9
19 24 22 17 15 16 18 17 14 13 13 13 11 11 10 9 7 6 6 6 8 7 7 7 8 8 7 7 7 6 6 5 5 4 4 4 5 6 6 6 5 5 6 7 7 7 9 9 10 11 12 13 12 12 10 8 6 5 5 3 1 1 1 2 3 4 6 6 5 5 6 5 5 7 7 9 9 9 9 9 8 8 8 7 8
19 23 22 17 15 18 20 18 16 14 14 13 12 11 10 9 7 6 5 6 8 7 6 6 7 7 7 7 7 6 5 5 4 3 3 3 4 5 6 5 4 6 7 8 9 10 10 8 9 11 14 14 14 14 12 9 7 6 6 5 3 2 2 2 1 3 5 5 5 6 6 5 5 7 7 8 8 7 8 9 10 8 8 8 7
17 21 20 16 13 18 20 18 17 15 15 14 13 11 10 9 7 6 5 6 7 6 6 6 7 7 7 7 6 6 5 4 3 3 3 3 4 4 5 4 4 7 9 9 10 11 10 8 9 12 16 17 16 14 12 9 7 6 6 4 2 3 3 3 2 3 4 4 4 5 5 5 5 6 6 6 6 6 7 8 8 7 8 9 8
15 18 17 13 11 17 20 17 16 15 15 15 14 12 10 9 7 6 6 6 7 6 5 5 7 8 7 7 6 5 4 3 3 4 4 3 4 4 4 3 4 9 9 9 9 8 8 7 9 12 16 17 16 14 10 8 7 6 6 4 1 2 3 3 3 3 3 3 4 4 5 6 5 5 6 5 5 6 7 7 7 7 8 9 8
14 16 16 12 10 17 19 17 16 14 14 14 14 12 10 9 8 7 6 6 6 6 5 4 6 8 7 7 7 5 4 3 2 4 5 4 4 5 4 4 5 8 7 6 7 7 6 7 9 13 15 16 16 13 9 8 6 6 6 5 3 3 4 4 4 3 3 3 3 3 5 6 5 4 5 5 6 7 8 9 8 6 6 7 7
13 14 15 11 11 18 18 17 16 14 14 13 13 12 11 10 9 7 7 6 5 6 5 4 5 7 6 6 7 5 4 3 2 2 4 4 5 6 4 5 6 6 4 4 6 7 7 8 10 13 15 16 16 12 9 8 6 6 6 6 5 4 4 4 3 3 2 2 2 2 3 4 4 4 5 5 6 7 8 7 6 5 4 5 5
12 13 14 9 10 17 19 18 17 14 14 13 12 12 12 11 10 9 7 6 6 6 5 5 5 6 6 5 6 4 3 3 2 1 2 3 4 5 5 5 5 5 4 4 7 7 7 9 11 13 15 16 16 12 9 8 6 6 6 6 6 5 4 3 4 3 2 2 2 2 3 3 3 4 5 6 6 6 5 5 5 4 3 3 3
9 10 9 7 9 17 19 19 18 16 14 13 12 12 12 12 11 10 8 7 7 7 6 6 6 7 6 5 5 4 3 3 3 1 1 2 3 4 4 4 4 4 4 5 7 7 7 10 12 13 15 16 16 13 9 8 6 6 6 6 6 5 5 4 4 4 3 3 2 2 3 3 2 3 3 4 5 4 4 5 4 4 3 3 3
6 8 8 6 7 13 18 19 18 17 15 14 13 12 12 12 12 11 10 9 8 8 7 7 7 8 7 7 6 5 5 4 3 2 2 2 3 4 4 4 4 3 4 6 7 7 8 10 12 13 14 16 17 13 9 8 6 6 6 6 5 5 5 5 4 4 4 3 2 2 3 2 2 3 2 2 3 3 5 6 4 3 2 2 3
4 6 8 8 7 9 14 18 18 18 16 15 14 14 13 12 12 12 11 10 10 9 9 8 8 8 9 9 7 6 5 5 4 4 3 3 3 4 5 5 4 3 4 6 6 7 9 11 12 13 14 16 16 13 9 8 7 6 6 6 6 5 5 5 4 4 3 3 2 2 3 2 2 2 2 2 3 3 5 5 5 5 2 3 4
4 5 6 7 8 8 9 12 16 18 18 17 16 15 14 13 13 13 12 10 10 10 9 9 9 9 9 9 9 7 6 5 4 4 3 3 4 5 5 4 3 2 3 3 6 9 10 11 12 13 15 16 16 12 9 8 7 6 5 6 6 5 5 4 3 3 2 2 2 2 3 1 2 2 3 1 2 3 5 4 5 7 5 5 5
4 5 5 6 7 7 6 7 12 15 16 17 16 16 16 14 14 13 13 11 10 9 9 8 9 9 9 10 10 8 7 7 6 4 3 4 5 5 5 4 3 2 0 3 6 9 11 12 12 13 15 16 17 13 9 7 7 6 5 5 5 6 5 5 3 2 1 1 2 2 2 0 2 0 2 1 1 3 4 5 7 8 7 7 7
3 5 6 7 8 7 6 6 8 11 13 13 14 16 16 15 15 14 14 13 11 10 9 8 8 9 10 10 10 10 9 9 8 6 4 5 5 5 4 4 4 3 2 4 7 9 11 12 11 12 14 16 17 15 10 7 6 5 5 5 5 5 5 5 3 3 2 1 2 2 1 2 2 1 1 1 3 4 4 6 8 10 9 9 7
2 2 4 7 9 9 8 7 6 8 10 11 12 13 16 16 15 15 15 13 12 11 10 9 9 9 10 10 11 11 10 9 8 7 6 5 5 5 4 6 6 4 3 3 6 8 10 10 10 11 11 14 16 16 12 8 6 6 5 5 4 5 5 5 4 3 2 1 1 1 3 4 2 1 3 3 4 5 5 6 9 9 9 8 6
3 1 1 4 7 10 11 10 9 9 9 10 11 11 14 16 15 14 15 14 13 13 12 11 10 10 11 11 10 11 10 8 7 7 7 6 6 6 4 6 6 6 5 3 5 7 9 9 11 12 10 11 14 16 14 9 6 6 6 5 5 4 4 4 5 4 3 2 1 1 3 3 2 1 4 4 4 4 6 7 8 6 6 7 6
5 4 2 3 5 8 11 12 12 11 11 10 10 10 11 14 15 14 13 13 13 13 12 12 12 11 11 11 9 9 9 8 7 6 7 6 7 6 4 5 6 6 6 3 5 5 8 10 11 13 12 9 12 15 14 11 7 6 6 6 5 5 4 4 4 4 3 3 1 1 2 2 1 2 4 4 5 5 7 7 6 4 4 6 6
7 6 5 4 4 6 9 11 13 13 13 12 10 9 10 12 15 15 13 13 13 12 12 12 11 11 11 11 9 8 8 8 8 8 8 8 7 6 5 5 7 7 6 6 6 5 8 10 10 12 14 10 10 13 14 12 8 6 6 6 6 6 5 4 4 4 4 3 2 1 2 2 1 2 4 5 6 6 8 8 5 4 4 6 6
10 8 6 6 5 7 8 11 13 14 14 13 11 10 9 10 12 13 13 13 13 12 11 12 11 11 12 12 10 9 9 9 9 9 10 9 8 7 6 6 8 8 7 6 7 6 6 8 9 11 13 10 10 12 13 13 10 7 6 6 6 6 6 5 5 4 4 4 4 3 2 3 2 1 3 4 6 7 9 9 6 4 4 5 5
10 9 8 7 5 7 9 11 12 13 14 14 11 10 9 8 9 10 11 11 12 12 11 12 12 11 12 12 11 11 11 10 10 10 9 8 7 6 6 8 9 10 8 6 5 5 4 5 7 9 10 9 9 11 12 13 12 9 7 6 6 7 7 6 6 5 5 5 5 5 4 3 4 3 1 2 5 6 8 8 7 5 4 5 6
11 10 10 8 6 6 7 10 12 12 13 14 11 10 9 8 8 8 8 7 8 9 10 11 12 11 11 11 11 12 12 11 10 11 11 10 9 7 6 8 9 10 10 7 6 6 4 3 5 6 8 8 9 10 12 12 12 11 8 6 6 6 7 7 7 6 6 6 6 6 6 5 4 5 4 3 2 3 6 7 8 6 5 6 6
12 12 12 10 9 6 4 6 10 12 12 11 9 8 9 8 7 7 7 6 6 6 6 7 8 8 10 12 12 14 14 12 11 12 12 12 10 8 7 7 9 11 11 9 9 10 5 3 2 4 6 6 7 9 10 11 12 11 10 8 7 6 7 7 7 7 7 7 7 7 7 7 6 6 6 5 4 2 4 6 7 6 6 6 6
12 14 13 12 12 9 7 5 4 9 10 9 7 7 8 8 6 6 6 5 4 5 5 4 3 3 5 7 10 13 14 13 13 13 12 12 11 8 7 6 7 10 11 12 13 11 5 3 3 4 6 5 6 8 7 9 11 11 10 9 8 7 7 8 8 8 8 8 9 9 8 8 8 8 7 7 6 5 2 2 5 5 5 6 6
13 15 13 12 12 11 11 7 1 6 7 7 8 8 6 7 7 5 5 3 2 4 4 2 2 3 3 3 6 7 9 10 12 14 14 15 14 10 8 7 6 6 7 11 13 10 6 6 5 6 6 5 6 7 7 9 10 10 10 9 9 8 8 8 8 8 8 9 9 9 9 10 9 9 9 8 8 7 5 2 3 5 5 6 6
14 13 12 11 11 11 12 9 6 6 7 7 10 9 7 9 9 5 5 5 3 4 4 3 2 3 1 1 1 2 3 6 6 6 8 9 9 6 7 7 5 4 4 6 10 11 11 8 6 7 6 4 5 5 7 9 10 10 10 10 10 10 9 8 8 8 8 8 9 10 10 10 10 10 10 9 9 9 8 5 2 3 4 5 6
13 13 11 11 11 11 11 10 9 9 9 10 12 12 9 9 9 5 6 6 4 4 4 4 3 3 2 2 2 2 3 4 4 3 2 1 0 1 3 3 2 4 4 6 10 13 13 10 7 8 5 1 2 3 5 6 7 9 9 9 10 10 10 10 9 9 8 8 9 9 10 10 10 10 10 10 10 9 9 8 6 4 3 4 5
12 12 11 11 10 12 12 11 11 11 11 12 12 13 10 10 10 7 7 7 5 5 4 4 4 4 3 3 4 3 4 5 6 6 6 4 2 1 0 1 3 4 2 5 9 11 12 10 9 8 5 3 2 3 3 4 5 7 7 8 9 9 10 11 11 10 9 9 9 9 10 10 10 10 10 10 10 10 10 10 10 9 7 4 4
11 12 11 11 11 13 14 13 12 12 13 13 12 13 12 11 12 10 9 9 7 6 7 7 6 5 4 5 6 5 5 6 6 7 6 4 3 3 2 1 2 3 2 3 6 8 10 9 9 7 5 4 5 5 6 5 5 7 6 6 6 7 8 9 10 11 10 10 10 10 10 10 10 9 10 9 9 10 10 10 10 11 10 9 8
10 11 12 12 13 15 16 15 14 15 16 16 15 16 15 14 14 13 13 13 10 8 10 12 12 11 9 7 6 5 7 7 6 5 5 4 4 4 3 2 2 2 2 2 3 5 7 8 8 6 5 6 6 6 6 4 5 7 7 6 6 6 6 7 8 8 10 10 11 11 11 11 11 10 10 9 9 10 10 11 10 11 11 11 12
10 11 13 14 14 16 18 17 17 17 17 17 17 18 18 17 16 17 16 16 15 14 15 17 18 17 15 12 9 7 7 6 5 3 3 3 3 4 3 2 2 2 1 1 2 2 3 5 6 5 5 7 7 7 5 4 6 7 7 8 8 8 8 8 8 8 8 9 10 11 11 11 11 11 11 10 10 10 10 10 11 11 11 12 12
10 11 13 15 16 18 19 20 20 20 19 18 17 17 17 17 17 18 18 18 19 19 19 20 21 20 18 17 16 14 12 10 8 6 6 6 5 4 4 3 3 2 2 2 2 2 3 4 4 5 6 6 7 6 4 4 6 7 7 8 8 9 9 10 10 9 9 9 9 9 10 10 11 11 11 11 12 12 11 11 11 11 11 11 12
11 12 15 16 17 18 19 20 21 21 20 19 18 18 18 19 19 20 20 19 20 21 21 21 21 21 19 19 18 18 17 16 15 14 13 12 11 10 9 7 6 6 4 3 2 4 6 6 5 5 5 5 4 5 4 4 5 6 7 8 10 9 9 9 9 9 9 10 9 9 9 10 10 11 11 11 12 13 13 13 13 12 12 12 12
13 14 16 17 17 18 18 20 21 21 22 21 21 22 22 21 21 21 21 20 21 22 22 21 21 20 19 19 18 18 18 18 18 17 17 17 16 15 15 13 11 9 8 6 7 8 8 7 6 5 5 5 5 7 6 6 7 7 8 9 10 10 10 9 8 7 7 8 9 10 11 11 11 11 11 11 11 12 13 14 14 14 13 13 13
13 14 16 17 18 19 21 22 23 24 23 23 24 24 23 22 22 22 21 21 22 22 21 21 21 20 19 18 17 17 16 17 17 16 16 16 16 17 16 15 14 13 12 11 11 11 9 8 7 6 6 6 7 8 9 9 8 8 8 8 10 10 9 8 6 4 6 8 9 10 11 12 13 13 13 14 14 14 14 15 15 15 15 14 14
13 14 16 18 19 20 21 23 24 24 24 24 24 25 24 23 23 22 22 23 22 21 21 21 21 20 19 18 17 17 16 16 16 15 15 15 15 15 15 14 14 13 14 15 15 13 12 11 10 10 9 8 10 11 12 11 8 7 7 7 10 9 8 5 4 6 9 10 9 9 11 12 13 14 14 15 15 16 16 17 16 16 16 15 14
13 15 15 17 18 19 20 21 23 23 23 23 23 23 23 22 21 21 22 23 22 21 21 21 21 21 20 19 19 19 18 17 17 17 16 16 16 16 15 15 15 14 15 16 16 14 13 12 11 11 11 11 13 15 16 11 7 9 8 8 7 5 6 3 5 10 12 9 10 10 11 12 13 15 16 17 18 19 20 19 19 18 18 17 17
13 15 16 17 18 19 20 20 20 21 21 21 20 21 22 22 22 23 23 23 23 23 23 23 23 22 21 21 21 21 20 19 19 18 18 19 19 18 18 18 17 17 16 15 14 14 13 13 10 9 11 12 14 17 19 12 8 10 9 8 4 2 3 4 7 14 9 8 11 10 11 12 16 19 19 19 19 21 21 21 20 20 19 20 20
13 14 16 18 18 19 19 19 19 19 19 20 20 21 23 23 24 25 24 25 25 24 25 25 23 23 22 22 22 21 21 21 20 19 20 20 20 20 20 19 19 19 19 18 17 16 16 15 13 9 8 10 12 16 19 15 11 10 7 5 3 4 1 4 13 14 6 9 11 9 12 14 17 21 20 18 19 20 21 22 21 21 21 20 21
13 14 16 18 19 20 20 20 20 20 20 21 21 23 24 24 25 26 27 27 27 26 26 25 24 23 23 23 22 22 22 22 21 21 21 21 21 22 21 21 21 22 22 22 21 20 18 17 16 13 10 9 10 13 16 17 14 10 6 3 3 4 1 5 16 9 3 9 9 8 12 13 16 20 19 18 19 19 21 24 24 23 23 21 20
12 14 17 19 20 21 21 22 22 22 23 23 24 25 26 28 28 27 26 26 25 25 24 24 25 26 26 25 25 24 25 25 25 25 25 24 24 24 24 24 25 25 26 26 24 23 22 21 20 18 15 11 9 10 12 16 17 14 10 5 3 3 3 9 13 4 4 8 6 7 11 10 15 19 17 17 19 19 21 24 25 25 24 22 21
11 14 16 18 20 21 23 23 24 24 25 25 25 26 27 26 24 22 21 22 22 21 22 24 27 28 28 27 27 26 27 27 27 27 26 26 26 26 26 26 27 27 27 27 27 26 25 25 24 22 20 16 12 11 11 12 15 16 14 10 6 3 5 9 8 4 7 6 3 8 9 9 14 15 14 16 18 19 22 24 25 24 23 22 22
11 14 16 18 20 21 23 24 24 24 24 24 24 24 25 24 24 24 25 26 24 22 24 26 28 28 27 27 27 26 26 26 26 26 26 25 25 25 26 26 26 27 26 26 27 26 25 24 24 24 23 20 16 14 12 11 12 14 13 11 9 6 5 6 5 5 7 5 6 10 8 11 14 12 10 15 17 18 23 26 25 23 21 22 23
11 13 15 17 19 21 22 22 22 23 22 21 20 21 24 25 27 29 30 30 29 27 27 28 27 27 27 26 26 25 25 25 25 24 24 24 24 24 24 24 24 25 25 25 25 24 23 22 22 22 22 22 19 16 14 13 12 12 12 11 9 7 6 6 6 6 6 6 9 10 10 16 15 8 11 15 14 16 23 26 24 22 20 23 23
12 13 16 17 19 20 20 20 20 20 20 19 20 22 24 26 28 30 31 31 30 29 27 27 26 25 25 25 25 25 24 23 23 23 23 22 22 22 22 22 22 22 22 22 22 21 20 20 19 19 19 19 18 16 15 14 12 11 10 10 10 9 7 6 7 8 7 6 8 8 14 20 14 10 17 17 16 21 24 21 22 20 18 22 22
12 14 17 18 20 20 20 20 20 21 21 21 23 24 24 25 27 28 30 31 30 28 27 26 25 24 24 24 24 23 23 22 22 22 21 21 21 20 21 21 20 20 20 19 19 18 18 17 17 16 16 15 15 14 13 12 10 10 9 8 8 8 7 6 7 9 7 6 7 8 14 17 14 16 21 21 24 29 23 19 20 16 15 19 19
13 15 17 20 21 22 22 23 23 23 24 24 24 24 24 25 26 27 28 29 28 27 26 25 24 23 23 23 23 22 21 21 21 20 20 19 19 19 19 19 18 18 18 17 17 17 17 16 15 14 14 14 13 12 12 11 9 9 9 7 6 6 6 6 7 8 7 7 8 9 12 15 15 17 20 24 28 26 23 23 18 14 15 17 16
Wind_Direction
183 170 169 170 162 161 165 166 168 168 167 162 156 152 148 146 145 141 130 127 124 118 113 110 109 109 110 108 107 103 100 96 92 89 85 83 84 89 86 82 81 85 85 82 82 80 79 74 72 68 68 70 69 67 69 79 86 79 73 74 76 78 76 74 75 76 78 78 77 77 76 72 71 69 68 66 66 72 78 77 68 64 64 65 67
176 172 170 169 164 163 168 168 168 170 169 164 159 154 150 148 147 147 138 134 130 124 119 116 115 112 113 111 109 105 102 98 96 95 92 89 85 85 83 84 79 77 80 78 76 72 71 70 68 64 65 69 70 70 71 76 81 82 76 75 76 82 87 89 86 82 80 75 75 78 77 73 74 72 70 70 74 78 79 75 67 65 64 65 69
173 172 170 170 167 165 171 170 169 173 171 169 163 159 157 154 151 150 146 138 135 131 124 122 120 116 117 115 112 108 106 103 101 99 95 92 86 85 82 87 85 79 78 76 73 66 63 63 64 62 65 67 69 70 71 73 74 77 78 79 79 86 97 105 102 96 89 84 81 75 71 72 74 73 70 72 76 77 75 74 67 65 65 64 66
174 173 170 173 170 166 171 172 171 174 174 174 168 165 164 163 158 156 153 143 139 137 133 129 126 123 123 120 117 111 108 106 105 107 99 90 86 88 89 89 87 82 76 76 74 66 60 50 44 50 60 59 62 63 63 65 63 66 73 83 87 91 98 108 107 101 98 95 85 74 73 76 73 73 70 66 70 72 70 72 70 66 64 62 61
173 175 171 173 174 170 171 176 175 176 177 176 174 172 170 168 163 160 157 149 144 140 139 136 133 130 128 125 121 115 110 107 105 106 99 90 83 87 93 92 85 82 75 73 72 65 55 40 34 39 41 33 32 28 28 34 40 52 62 77 89 96 100 103 97 97 101 94 83 76 78 80 78 77 72 64 62 67 69 70 69 67 63 59 58
175 177 172 170 177 177 175 179 182 179 180 180 179 178 175 171 168 163 154 152 150 144 141 138 139 136 133 130 125 120 114 110 101 96 96 94 88 90 93 91 86 81 74 70 67 58 42 36 39 39 36 28 20 8 358 355 4 21 28 45 74 99 108 102 87 90 91 76 71 74 72 72 79 81 80 73 64 62 62 62 62 63 60 57 59
177 179 175 171 177 186 181 182 186 183 184 186 183 182 180 176 172 164 149 152 152 146 145 142 140 139 136 132 128 124 119 113 100 90 94 106 102 96 94 91 87 83 71 59 45 25 16 29 44 35 27 22 17 12 5 354 350 356 1 356 336 133 144 118 76 81 84 64 54 61 65 64 75 82 81 75 67 58 54 53 51 56 55 53 60
179 181 180 173 178 191 186 184 185 184 188 188 188 187 184 181 179 169 155 156 152 148 152 151 145 141 141 137 133 128 121 113 101 79 84 121 125 107 103 96 87 85 65 49 37 23 17 24 41 29 12 7 5 6 10 8 358 351 350 345 310 227 199 167 83 74 79 62 52 52 54 55 65 81 77 70 68 58 54 46 35 40 47 45 55
180 183 182 176 184 194 186 187 187 184 189 190 193 192 189 187 186 178 170 164 155 158 159 155 154 149 149 145 141 135 127 123 103 59 66 106 131 121 107 97 94 89 69 55 45 39 40 28 30 20 2 357 357 359 10 16 10 4 360 356 324 218 198 182 133 83 74 60 58 52 54 53 51 76 75 62 60 53 59 56 37 34 39 39 46
179 183 185 180 194 195 186 190 190 188 190 193 198 197 195 192 193 188 181 172 160 167 162 161 164 156 159 157 153 149 142 138 99 63 64 81 120 120 101 96 98 91 79 67 55 47 47 27 16 9 360 359 0 2 12 20 18 18 20 29 51 175 174 163 128 93 84 71 63 53 56 61 52 62 63 51 55 55 59 61 54 44 39 38 41
179 183 185 185 203 197 190 193 192 193 193 195 200 201 202 198 198 194 188 180 168 171 165 178 173 158 166 167 162 161 157 152 104 68 65 71 112 119 110 108 101 96 92 76 57 34 17 4 2 3 3 4 6 10 19 27 28 32 37 51 79 136 152 152 126 103 99 80 75 67 47 58 60 52 54 53 58 58 52 51 48 42 43 36 39
178 184 186 190 207 198 194 197 195 198 200 199 198 201 207 203 201 197 194 188 183 180 172 187 183 165 170 169 165 162 163 174 138 83 69 79 115 126 126 119 111 105 92 61 33 17 8 0 0 2 2 2 5 12 23 30 31 38 46 57 78 112 140 149 122 110 104 86 85 77 50 53 58 50 46 38 41 46 45 47 41 30 31 15 29
176 183 189 189 201 199 198 201 200 201 205 202 195 200 206 208 206 200 199 198 197 190 180 187 193 179 172 178 175 170 177 203 199 120 76 92 128 138 136 128 116 99 74 38 19 21 21 8 2 357 357 360 3 8 20 32 34 39 48 55 71 94 114 122 110 109 96 99 104 71 65 53 51 58 47 26 18 28 27 27 25 11 359 349 32
173 180 186 184 193 200 203 204 205 204 207 207 197 198 205 212 210 204 204 205 205 198 191 189 199 192 179 191 191 189 202 224 229 195 146 121 139 146 138 132 110 90 64 35 34 42 28 10 4 357 356 360 2 3 14 27 32 44 53 56 69 83 96 94 93 102 93 105 112 90 73 55 67 71 50 19 4 360 1 4 18 15 5 15 32
163 179 181 182 190 200 205 208 211 209 211 213 208 202 205 215 214 210 206 206 212 206 204 201 202 201 191 195 198 205 218 231 244 242 203 154 160 161 148 136 113 91 57 45 49 50 27 13 9 2 360 1 1 1 6 17 27 45 57 64 73 80 95 92 85 90 90 96 91 91 70 65 117 79 30 360 7 347 354 6 14 16 2 7 357
144 174 180 186 189 196 206 210 215 215 215 218 218 212 209 217 221 219 212 209 214 207 209 213 207 207 205 203 205 212 222 236 245 256 234 187 183 171 161 148 127 94 64 58 48 36 24 18 12 6 4 3 1 1 3 8 15 32 52 63 72 79 93 96 94 85 86 93 86 93 62 62 146 78 28 336 22 355 346 1 1 359 327 296 303
138 159 176 187 193 197 205 211 216 219 220 221 223 223 217 217 224 227 222 216 218 211 212 221 214 211 214 213 215 217 226 239 241 252 244 209 204 187 175 167 156 118 70 51 31 23 20 18 12 9 6 6 4 2 3 6 6 14 34 48 60 69 84 95 93 77 85 97 85 88 50 43 169 75 63 11 18 2 344 346 344 345 335 308 293
152 162 177 183 193 201 209 216 217 220 222 225 225 227 225 220 223 230 230 225 225 221 219 226 222 217 218 223 223 223 231 239 241 244 234 217 217 206 192 187 193 184 83 358 4 6 9 12 11 11 8 7 7 4 1 4 5 4 16 30 45 53 67 84 88 89 82 57 55 60 33 209 192 100 99 157 316 360 352 330 324 328 325 314 304
152 176 191 192 194 195 209 223 220 220 220 227 227 230 231 226 224 227 231 228 228 232 234 237 233 228 225 230 231 230 236 241 243 241 234 228 221 212 203 210 219 219 252 326 348 354 1 7 11 10 9 9 8 6 360 356 2 358 6 18 32 43 52 64 75 93 67 30 57 38 291 212 196 283 290 270 301 321 326 315 316 320 319 317 312
104 160 200 205 207 199 199 208 216 219 217 227 229 231 236 234 229 227 232 231 229 233 240 246 244 241 238 238 238 236 239 247 251 246 239 232 219 213 213 224 221 210 225 311 339 347 350 357 9 6 7 12 10 9 3 350 352 351 354 3 18 34 44 51 55 68 57 75 93 9 251 225 215 312 325 317 321 320 311 311 315 319 322 327 332
48 55 228 217 220 214 208 203 204 209 210 221 228 231 235 239 238 233 233 234 234 235 238 246 249 249 248 246 245 243 244 249 254 251 246 239 230 224 226 232 223 211 215 299 324 330 334 343 3 2 360 13 13 11 9 358 346 347 346 349 2 16 25 37 38 38 38 56 71 273 246 231 222 336 342 332 342 332 318 319 320 326 331 336 344
14 10 332 272 241 231 223 213 208 205 202 206 218 226 231 235 238 239 239 239 241 241 239 241 245 247 251 252 246 246 248 249 250 252 252 248 243 234 231 240 242 231 221 276 305 317 327 334 353 359 354 8 18 11 10 7 352 346 342 341 346 351 360 11 24 19 16 31 18 282 249 227 189 8 351 344 347 330 329 338 342 351 351 347 357
7 4 347 311 273 249 239 229 220 212 204 200 205 212 221 223 225 232 238 242 241 242 246 242 241 242 248 256 249 243 247 250 247 244 246 249 254 247 235 243 254 240 228 265 286 302 321 332 347 354 353 4 23 14 10 11 3 351 342 339 337 334 340 345 2 5 1 2 352 329 270 252 211 26 6 351 347 333 341 356 2 2 2 2 10
5 3 353 331 294 263 246 239 231 222 213 203 203 205 213 220 220 225 228 235 238 240 252 250 249 249 246 251 255 256 255 254 250 248 249 251 257 256 240 238 249 240 241 273 280 287 306 332 346 350 353 7 25 15 10 12 9 360 346 337 332 327 327 327 337 345 346 342 336 331 302 278 264 328 35 8 350 335 342 356 0 1 4 8 12
5 3 350 335 306 276 251 241 234 229 222 209 204 201 203 215 220 224 223 229 237 236 243 246 250 254 246 243 251 259 259 258 256 254 249 243 245 250 242 237 240 239 247 265 261 263 284 331 346 351 357 14 27 16 10 11 9 4 355 339 329 325 322 318 321 326 330 325 320 321 314 299 278 277 293 20 4 345 337 347 354 353 344 352 3
4 360 349 340 327 296 263 243 231 226 224 213 205 200 197 207 215 215 217 226 237 242 249 246 241 245 242 238 243 248 252 254 256 257 252 246 244 243 246 239 232 232 240 249 241 238 255 322 342 358 4 22 29 17 10 8 6 2 356 345 331 324 321 318 316 315 317 314 309 309 307 306 299 289 279 276 335 2 346 338 341 346 337 330 337
360 357 352 354 354 337 308 263 230 218 216 207 198 194 191 199 210 209 210 218 227 243 262 254 240 243 243 244 249 249 249 248 251 258 256 252 247 241 248 240 235 238 241 241 228 226 241 301 315 350 360 17 20 12 7 3 1 359 356 349 339 329 322 318 316 314 313 311 307 303 304 304 304 302 294 286 270 295 357 344 334 336 339 329 314
359 359 0 7 7 10 13 343 228 197 192 189 184 181 190 193 187 186 196 217 228 226 242 255 240 241 249 252 258 254 245 245 252 254 255 256 247 242 247 243 248 250 251 246 227 217 238 278 262 316 342 355 360 358 3 6 2 357 355 350 344 334 325 321 318 317 315 312 308 303 302 302 304 305 300 299 287 276 297 349 343 328 331 336 317
5 4 8 16 18 28 32 21 74 159 158 167 168 161 173 173 170 178 172 177 193 192 197 200 200 221 265 277 271 265 242 242 256 252 251 251 240 238 247 245 251 256 262 251 232 225 248 260 263 306 336 353 352 358 10 12 7 359 354 350 347 339 329 324 321 321 318 314 310 305 302 301 302 304 302 303 300 291 272 259 358 340 319 323 317
12 16 19 24 32 42 45 45 75 119 133 147 157 157 154 150 166 182 149 145 141 159 165 134 152 193 231 282 266 289 235 228 251 260 256 251 237 239 257 251 243 258 275 254 241 246 255 254 264 302 330 358 354 8 16 12 14 11 2 353 350 346 338 330 321 317 314 309 306 303 301 300 300 301 303 303 302 300 286 266 305 341 311 300 302
23 32 37 38 46 54 57 65 88 112 129 135 146 160 159 151 169 169 137 147 124 123 139 112 98 110 115 107 130 109 104 148 138 103 109 95 86 279 288 285 289 288 269 247 250 251 255 254 256 289 308 353 350 5 17 13 20 20 16 9 1 356 350 343 331 318 308 301 298 298 297 297 296 296 297 301 302 300 296 283 267 264 279 290 295
32 42 50 55 64 71 71 79 100 118 133 135 139 150 144 136 154 146 124 143 126 109 109 98 86 77 88 92 101 107 95 115 122 115 115 113 111 112 306 319 313 304 260 237 250 249 253 252 251 279 281 236 274 313 352 4 8 12 20 20 14 8 3 360 353 339 322 309 302 300 299 297 295 293 292 295 299 299 299 293 282 274 273 276 278
36 52 65 72 82 89 85 88 105 117 125 129 125 133 133 119 127 123 107 118 118 105 97 91 90 92 100 95 88 82 85 101 113 110 103 108 107 80 77 70 340 333 337 274 262 261 264 259 264 289 290 258 268 298 330 352 352 354 1 10 14 10 8 10 6 357 347 335 325 320 315 311 305 299 294 292 295 299 302 301 295 289 281 273 265
39 56 73 81 89 97 98 101 109 111 111 115 113 116 119 111 112 115 105 103 100 96 101 96 91 96 101 101 100 86 82 86 96 101 91 91 90 74 65 48 35 27 11 313 276 271 270 271 279 296 293 274 271 289 311 333 336 339 342 347 354 352 354 1 2 0 357 352 347 343 338 332 325 319 312 304 300 300 303 305 301 297 290 282 277
52 63 77 84 92 100 105 108 112 112 109 110 109 107 108 106 106 108 103 101 99 97 99 97 91 90 89 89 93 94 91 86 87 100 98 90 85 70 54 46 50 33 28 355 312 296 288 287 293 305 297 291 289 287 298 320 328 331 331 336 342 340 341 343 344 349 353 354 356 354 351 347 341 334 328 324 317 312 309 307 304 301 297 292 288
76 81 86 90 98 103 105 108 109 111 110 108 107 106 107 107 105 104 103 103 102 97 93 92 90 87 84 81 80 82 83 81 81 86 89 88 91 85 66 67 68 46 38 357 327 343 349 327 316 315 310 311 305 298 303 307 310 318 324 332 335 335 337 337 338 344 347 348 349 351 351 349 345 341 337 336 330 323 318 314 312 310 307 303 298
99 100 100 100 103 105 107 107 106 106 106 107 108 108 108 107 105 102 100 99 98 96 92 89 87 84 82 80 78 78 77 76 77 77 79 80 84 84 77 73 71 71 68 46 35 34 27 14 354 339 335 339 328 316 315 300 305 317 321 323 324 327 332 332 334 340 345 350 354 356 357 355 353 353 352 347 342 337 331 328 325 321 317 312 308
111 111 111 110 110 112 113 111 110 109 108 108 109 108 108 106 102 99 98 97 96 95 93 89 85 83 81 81 81 80 79 78 76 76 77 78 78 77 75 74 73 76 75 70 67 57 46 29 16 16 4 357 355 347 342 331 324 323 317 312 314 317 321 324 328 335 348 3 11 12 13 16 17 17 16 13 10 5 356 352 348 341 337 329 322
112 114 118 120 120 120 119 117 116 114 114 113 111 108 106 104 101 100 99 96 92 90 89 88 86 84 82 81 83 83 83 84 83 81 79 78 77 76 75 74 72 74 74 75 71 67 66 58 52 50 35 24 17 6 357 347 334 323 320 319 319 321 323 326 333 360 20 14 11 14 20 25 28 30 31 28 22 18 12 7 3 357 352 346 340
112 114 120 123 123 122 122 123 122 120 120 119 115 111 107 105 104 101 96 91 88 87 86 86 87 86 85 85 85 85 86 87 88 87 85 85 85 81 79 75 70 67 66 66 64 62 62 62 64 59 52 41 30 23 10 358 343 326 323 327 327 327 330 334 11 30 12 5 11 19 25 27 28 27 21 16 11 8 7 3 1 358 353 348 344
115 118 120 122 122 123 125 126 126 126 125 123 120 117 113 110 107 101 96 92 90 89 88 87 87 87 88 87 86 86 86 85 86 87 88 89 88 86 84 80 75 69 66 65 63 62 58 57 55 49 51 44 34 29 17 8 354 342 335 328 324 324 332 356 54 18 1 10 25 23 25 28 21 12 3 358 354 350 351 350 350 350 347 345 341
118 122 120 121 123 124 126 125 125 125 124 124 122 120 118 115 111 106 103 98 95 94 91 89 89 89 88 87 86 85 84 83 83 86 87 88 87 84 83 82 82 78 75 74 70 67 62 62 58 45 47 47 41 32 25 24 5 346 332 321 328 343 352 93 31 1 10 30 22 20 24 19 4 357 355 352 349 345 344 342 340 339 336 335 333
118 122 121 124 126 125 127 126 125 125 125 124 122 120 119 117 114 110 106 101 97 95 94 92 91 90 88 87 86 85 84 83 83 83 84 85 85 84 83 83 84 82 79 76 73 71 67 66 66 58 51 51 51 39 35 37 14 346 326 315 349 347 117 95 359 349 27 25 19 29 18 9 359 357 358 358 358 356 354 352 347 342 337 331 327
117 121 123 126 126 127 129 128 126 125 125 125 123 122 120 119 116 112 108 103 99 97 95 93 92 91 89 88 87 86 86 85 85 84 84 84 85 85 85 84 84 83 80 76 72 70 69 69 67 64 60 54 54 45 40 43 33 15 354 320 320 335 90 5 341 341 43 14 25 29 7 6 3 2 4 5 5 3 0 0 360 356 351 344 335
119 122 124 125 126 128 128 127 126 125 124 123 123 122 120 117 113 110 107 102 98 95 92 89 89 90 89 88 88 88 87 86 86 85 85 85 85 85 85 85 84 84 82 79 76 73 72 72 70 69 67 58 55 54 48 44 46 44 32 16 344 346 2 338 334 345 6 358 21 12 3 8 2 0 3 2 1 0 358 358 360 359 358 356 351
123 125 126 127 128 128 127 127 127 126 126 126 126 124 121 119 116 113 109 103 96 91 90 90 91 91 91 92 91 90 89 88 87 86 86 85 85 84 84 84 84 83 83 81 79 76 73 72 72 72 71 65 59 58 54 47 49 51 50 52 46 18 343 335 337 338 333 342 5 349 354 360 352 353 358 356 355 355 354 354 356 356 358 0 358
129 129 129 131 132 131 131 131 130 130 130 129 129 128 126 125 124 120 114 108 103 100 100 100 99 98 97 96 94 92 91 89 88 87 87 86 85 84 83 83 83 82 82 80 79 76 72 71 70 70 69 67 64 57 49 45 47 46 45 51 50 40 15 1 3 340 328 328 332 335 345 348 344 344 347 349 349 348 347 350 353 354 357 359 358
134 133 135 137 138 138 138 137 135 134 134 133 132 131 129 127 124 119 113 111 110 110 109 107 106 105 102 99 96 94 93 91 91 89 88 87 85 85 84 82 82 81 80 78 78 76 72 70 67 66 65 64 64 61 52 47 44 37 33 36 36 32 30 28 18 353 335 318 323 332 334 335 340 343 339 342 344 340 339 343 350 352 354 355 356
139 139 141 142 144 145 145 143 140 139 138 138 137 134 131 127 122 118 115 115 115 115 114 112 110 108 105 103 100 97 95 93 92 91 89 87 86 85 83 82 80 79 78 76 75 74 71 68 64 62 61 60 60 60 57 52 47 39 30 25 21 16 13 16 10 355 341 319 322 329 327 330 335 331 331 333 332 333 335 337 343 348 348 347 348
144 141 141 141 143 144 146 146 143 141 140 140 139 135 131 126 121 119 119 120 120 119 118 115 113 110 107 105 102 99 97 94 92 90 88 86 85 84 82 80 78 76 74 73 72 69 67 64 61 59 57 56 55 53 52 50 46 41 35 26 17 13 5 358 357 351 339 317 312 314 319 324 322 319 326 328 326 332 336 334 335 338 337 338 339
145 142 141 140 140 140 143 142 140 140 140 139 138 134 130 125 122 122 122 124 124 124 122 119 116 113 109 106 103 100 97 94 90 87 85 82 80 78 77 75 73 70 67 65 63 61 60 58 56 54 51 49 47 44 42 41 39 34 32 30 19 11 1 347 343 340 332 317 311 309 311 314 308 306 316 321 324 330 334 336 337 333 328 328 328